This demonstration page uses our WeatherBlox Daily Observations layout. Learn more.

Left ArrowRight Arrow

39.92423, -83.80882

Hourly Observations for January 11, 2020

Temp ( °F °C ) Dew Point ( °F °C ) Humidity (%) Winds ( mph kmh ) Pressure ( in mb ) Visibility ( mi km ) Precip ( " mm )
12:56 am 00:56 Cloudy 54 12.2 53 11.7 97 97 SSE 13 20 30.02 1017 10 16.0934 0 0
1:56 am 01:56 Cloudy with Light Rain 54 12.2 52 11.1 93 93 SSE 12 19 29.98 1015 10 16.0934 0 0
2:56 am 02:56 Cloudy 54 12.2 52 11.1 93 93 SSE 13 20 29.94 1014 10 16.0934 0 0
3:56 am 03:56 Cloudy 56 13.3 52 11.1 87 87 SSE 10 17 29.92 1013 10 16.0934 0 0
4:56 am 04:56 Cloudy with Light Rain 56 13.3 52 11.1 87 87 SSE 9 15 29.9 1012 10 16.0934 0 0
5:56 am 05:56 Cloudy with Rain 56 13.3 54 12.2 93 93 S 12 19 29.87 1011 8 12.87472 0 0
6:56 am 06:56 Cloudy 56 13.3 54 12.2 93 93 SSE 13 20 29.85 1011 10 16.0934 0 0
7:56 am 07:56 Cloudy 58 14.4 54 12.2 87 87 S 14 22 29.83 1010 10 16.0934 0 0
8:56 am 08:56 Mostly Sunny 61 16.1 55 12.8 81 81 S 16 26 29.79 1009 10 16.0934 0 0
9:56 am 09:56 Cloudy 62 16.7 56 13.3 80 80 S 22 35 29.77 1008 10 16.0934 0 0
10:56 am 10:56 Mostly Cloudy 64 17.8 56 13.3 75 75 S 15 24 29.78 1008 10 16.0934 0 0
11:56 am 11:56 Cloudy 65 18.3 57 13.9 76 76 S 17 28 29.72 1007 10 16.0934 0 0
12:56 pm 12:56 Cloudy with Heavy Rain 63 17.2 59 15 87 87 S 18 30 29.69 1006 7 11.26538 0 0
1:38 pm 13:38 Cloudy 63 17 63 17 100 100 SSW 18 30 29.67 1005 10 16.0934 0 0
1:56 pm 13:56 Cloudy with Light Rain 63 17.2 62 16.7 97 97 SSW 15 24 29.71 1006 10 16.0934 0 0
2:45 pm 14:45 Cloudy with Light Rain 63 17 61 16 94 94 SW 18 30 29.69 1006 10 16.0934 0 0
2:56 pm 14:56 Cloudy with Light Rain 62 16.7 61 16.1 96 96 SSW 14 22 29.72 1007 10 16.0934 0 0
3:56 pm 15:56 Cloudy with Light Rain 61 16.1 60 15.6 97 97 S 12 19 29.71 1006 10 16.0934 0 0
4:56 pm 16:56 Cloudy with Light Rain 60 15.6 59 15 96 96 SSW 12 19 29.73 1007 10 16.0934 0 0
5:56 pm 17:56 Cloudy with Rain 59 15 59 15 100 100 SSE 16 26 29.69 1006 9 14.48406 0 0
6:56 pm 18:56 Mostly Cloudy with Light Rain 58 14.4 58 14.4 100 100 SSE 20 31 29.65 1004 10 16.0934 0 0
7:02 pm 19:02 Mostly Cloudy 57 14 57 14 100 100 SSE 18 30 29.64 1004 10 16.0934 0 0
7:56 pm 19:56 Cloudy 58 14.4 58 14.4 100 100 SSE 10 17 29.63 1003 10 16.0934 0 0
8:56 pm 20:56 Cloudy with Light Rain 57 13.9 57 13.9 100 100 S 10 17 29.6 1002 5 8.0467 0 0
9:52 pm 21:52 Cloudy 59 15 59 15 100 100 SSW 17 28 29.58 1002 10 16.0934 0 0
9:56 pm 21:56 Cloudy 59 15 59 15 100 100 SSW 13 20 29.59 1002 10 16.0934 0 0
10:38 pm 22:38 Cloudy with Light Rain 55 13 54 12 94 94 WSW 30 48 29.63 1003 4 6.43736 0 0
10:46 pm 22:46 Cloudy with Light Rain 54 12 54 12 100 100 W 23 37 29.64 1004 10 16.0934 0 0
10:56 pm 22:56 Cloudy 53 11.7 53 11.7 100 100 W 17 28 29.65 1004 10 16.0934 0 0
11:32 pm 23:32 Cloudy 52 11 52 11 100 100 W 12 19 29.66 1004 10 16.0934 0 0
11:42 pm 23:42 Cloudy 52 11 52 11 100 100 SW 14 22 29.69 1005 10 16.0934 0 0
11:56 pm 23:56 Cloudy with Light Rain 51 10.6 51 10.6 100 100 WSW 26 43 29.72 1006 7 11.26538 0 0

Powered by AerisWeather